IRIDIUM 60 [+] (25276 NORAD) Tracking and Keplerian Element Data

This shows tracking and keplerian element data for the satellite.

Feedback or suggestion? Click here.




ElementValue
Catalog25276
NameIRIDIUM 60 [+]
Epoch Orbit6256
Epoch Day198.83970522
Epoch Year2018
RAAN121.638
Inclination86.3976
Eccentricity0.0002274
Argument of Perigee86.0339
Mean Anonmoly274.1117
Mean Motion14.34217303
Decay Rate1.59E-06
L11 25276U 98019E 18198.83970522 .00000159 00000-0 49847-4 0 9993
L22 25276 86.3976 121.6380 0002274 86.0339 274.1117 14.34217303 62568

Live tracking and technical data element details for IRIDIUM 60 [+] (NORAD 25276). IRIDIUM 60 [+] can be tracked NOW for your location showing map with azimuth and elevation plus other details from your city location.

Track the satellite on the map from your city or location and see movement details for azimuth, elevation, latitude, longitude, range, height, and movement on the map or in text.







IsCatalogInMostPopularTable: catalog: 25276, numindb: 34
Update: records affected: 1



GetName: 25276 IRIDIUM 60 [+]

Hit Count: updated at: Fri, 20 Jul 2018 07:03:27 GMT